Date,TemperatureHighF,TemperatureAvgF,TemperatureLowF,DewpointHighF,DewpointAvgF,DewpointLowF,HumidityHigh,HumidityAvg,HumidityLow,PressureMaxIn,PressureMinIn,WindSpeedMaxMPH,WindSpeedAvgMPH,GustSpeedMaxMPH,PrecipitationSumIn
2013-1-1,89.6,71.5,59.9,57.8,46.0,40.5,90,43,20,30.30,30.18,13,2,13,0.00
2013-1-2,96.1,71.3,58.1,69.8,54.9,41.1,98,66,17,30.21,30.12,8,1,8,0.04
2013-1-3,97.9,73.4,63.3,69.4,57.2,41.9,98,67,17,30.27,30.15,8,1,8,0.04
2013-1-4,91.0,70.7,62.2,68.5,61.4,49.0,98,77,28,30.36,30.21,6,1,6,0.00
2013-1-5,79.2,68.6,62.1,67.9,63.4,52.3,98,86,44,30.39,30.27,8,2,8,0.24
2013-1-6,91.6,73.2,61.0,73.9,59.0,48.0,98,70,26,30.33,30.18,11,3,11,0.04
2013-1-7,80.1,70.9,64.8,69.6,61.7,47.1,98,76,34,30.27,30.18,8,1,8,0.04
2013-1-8,91.8,71.7,65.7,74.7,63.9,48.1,98,82,23,30.33,30.18,11,2,11,0.00
2013-1-9,90.3,77.0,71.1,70.4,59.4,51.9,97,58,29,30.39,30.27,15,5,15,0.04
2013-1-10,87.8,74.9,67.1,68.4,54.5,42.8,92,53,22,30.42,30.30,13,4,13,0.00
2013-1-11,88.9,73.5,64.2,67.4,55.8,48.7,98,58,27,30.36,30.27,12,3,12,0.00
2013-1-12,89.2,74.1,65.8,70.9,57.6,45.5,98,63,26,30.30,30.21,13,3,13,0.00
2013-1-13,88.9,75.5,65.7,60.2,47.7,41.8,81,40,20,30.24,30.21,10,4,10,0.04
2013-1-14,92.5,70.3,59.2,65.8,52.5,39.0,98,64,18,30.27,30.21,12,2,12,0.00
2013-1-15,63.5,62.2,61.0,62.8,61.6,60.4,98,98,97,30.24,30.21,0,0,0,0.00
2013-1-19,74.5,69.9,62.6,64.9,57.9,50.8,98,68,45,30.27,30.21,6,2,6,0.00
2013-1-20,95.2,71.9,61.7,69.0,56.0,40.0,98,67,17,30.27,30.12,7,1,7,0.04
2013-1-21,94.8,72.2,62.8,72.5,57.5,41.5,98,69,17,30.18,30.06,8,1,8,0.00
2013-1-22,88.0,67.0,57.9,62.6,46.9,34.6,98,58,18,30.30,30.12,12,4,13,0.04
2013-1-23,84.2,64.6,54.1,54.4,43.0,32.0,88,51,19,30.39,30.30,9,3,10,0.00
2013-1-24,87.4,64.7,52.9,54.5,41.2,27.5,95,53,16,30.39,30.27,8,2,8,0.00
2013-1-25,88.7,63.8,50.5,56.2,43.7,31.1,96,59,18,30.36,30.27,9,2,9,0.00
2013-1-26,92.1,66.0,53.1,56.9,46.5,31.0,98,61,14,30.36,30.27,8,2,8,0.00
2013-1-27,90.9,68.9,56.8,61.5,48.0,33.8,97,60,17,30.39,30.27,10,2,10,0.00
2013-1-28,91.0,74.0,62.2,56.9,45.0,35.9,78,39,18,30.42,30.33,12,4,13,0.00
2013-1-29,91.6,73.1,61.9,66.0,50.7,41.8,91,50,19,30.36,30.24,15,4,15,0.00
2013-1-30,90.3,73.8,65.5,64.2,50.3,39.2,87,49,19,30.24,30.06,17,4,17,0.00
2013-1-31,73.9,65.7,54.9,69.1,47.2,24.1,96,57,25,30.30,30.06,12,2,12,0.00
2013-2-1,83.7,61.8,48.4,38.7,30.3,19.7,53,32,19,30.36,30.24,12,4,12,0.00
2013-2-2,87.4,62.2,48.4,47.9,32.8,0.0,84,38,16,30.36,30.21,11,2,11,0.00
2013-2-3,84.6,61.5,47.8,54.8,35.8,19.7,95,49,13,30.27,30.15,10,2,10,0.00
2013-2-4,88.2,61.2,43.0,48.0,35.7,24.8,87,48,13,30.24,30.12,9,1,9,0.00
2013-2-5,94.6,66.4,48.9,59.3,44.1,31.9,96,56,14,30.18,30.12,10,1,10,0.00
2013-2-6,93.2,68.1,56.5,63.8,48.1,36.8,94,57,16,30.21,30.12,9,1,9,0.00
2013-2-7,93.6,71.9,57.4,65.9,47.9,37.2,94,52,16,30.18,30.06,9,2,9,0.00
2013-2-8,96.1,74.2,61.0,68.4,54.3,39.7,95,59,16,30.15,30.03,11,2,11,0.00
2013-2-9,93.9,69.1,57.6,66.9,47.5,38.2,95,53,17,30.30,30.15,11,3,11,0.08
2013-2-10,86.7,68.6,57.4,61.3,44.3,38.4,93,44,20,30.36,30.24,14,4,14,0.04
2013-2-11,92.5,70.8,58.5,64.2,48.1,38.8,94,52,17,30.33,30.21,12,3,12,0.00
2013-2-12,99.3,74.0,59.0,66.2,51.0,35.8,95,55,13,30.24,30.09,10,2,10,0.00
2013-2-13,99.0,77.4,64.2,70.5,55.0,40.0,96,57,16,30.15,30.03,12,2,12,0.08
2013-2-14,97.5,71.7,61.2,69.0,58.7,42.7,96,71,17,30.12,29.97,17,3,17,0.31
2013-2-15,74.8,65.7,61.9,65.2,60.2,43.9,96,85,40,30.15,30.06,6,1,6,0.28
2013-2-16,83.3,65.5,49.1,64.3,43.8,25.1,95,55,16,30.18,30.00,15,4,15,0.00
2013-2-17,69.8,51.5,42.1,38.9,19.5,9.0,72,31,17,30.39,30.18,14,5,14,0.00
2013-2-18,79.7,59.5,43.2,36.6,27.0,16.3,45,30,17,30.39,30.30,13,4,13,0.00
2013-2-19,90.0,70.0,52.7,65.7,45.4,34.4,95,48,18,30.30,30.18,13,3,13,0.20
2013-2-20,92.3,70.6,61.9,66.9,53.4,35.7,96,65,14,30.24,30.12,10,2,10,0.04
2013-2-21,95.7,71.9,60.4,68.3,52.1,38.9,96,60,17,30.21,30.12,10,2,10,0.00
2013-2-22,95.4,74.4,64.2,70.3,57.0,41.2,96,66,17,30.21,30.12,15,4,15,0.00
2013-2-23,96.4,78.2,68.0,68.2,55.7,40.5,94,54,17,30.18,30.03,10,3,10,0.00
2013-2-24,101.1,79.5,68.0,73.6,56.2,37.3,96,57,12,30.12,30.03,9,1,9,0.00
2013-2-25,98.2,75.4,64.6,71.4,56.6,40.7,95,61,16,30.06,29.94,11,2,11,0.00
2013-2-26,94.6,79.0,71.2,69.4,54.2,40.6,91,48,18,30.03,29.94,12,2,12,0.00
2013-2-27,86.4,71.7,63.9,71.7,62.7,37.3,95,78,20,30.09,29.97,9,2,9,0.20
2013-2-28,79.2,64.9,57.9,63.1,41.1,28.4,96,48,20,30.12,30.00,8,2,8,0.00
2013-3-1,70.5,62.8,56.5,48.8,35.5,26.2,68,38,23,30.09,30.00,8,2,8,0.00
2013-3-2,73.9,55.9,46.4,35.5,27.4,20.3,58,34,16,30.12,30.06,17,4,17,0.20
2013-3-3,74.7,54.8,45.7,44.3,29.4,20.6,85,42,18,30.24,30.06,11,3,11,0.00
2013-3-4,82.6,55.2,38.8,36.3,24.0,16.4,76,34,14,30.30,30.18,11,3,13,0.00
2013-3-5,91.6,63.7,42.8,57.2,37.9,30.0,97,49,14,30.27,30.18,10,2,10,0.00
2013-3-6,87.4,64.8,47.8,63.2,38.7,13.7,98,48,16,30.21,30.06,15,3,15,0.04
2013-3-7,83.1,58.9,42.1,49.0,30.1,18.6,89,40,14,30.27,30.15,10,2,10,0.00
2013-3-8,87.3,62.8,46.6,56.2,38.4,24.7,98,53,13,30.30,30.21,9,2,9,0.00
2013-3-9,90.0,63.5,47.8,59.6,39.5,30.0,97,51,15,30.30,30.21,9,2,10,0.04
2013-3-10,77.5,59.9,54.5,54.1,47.2,31.1,87,67,20,30.27,30.18,10,1,10,0.00
2013-3-11,89.6,73.3,59.5,54.5,41.5,34.6,73,35,18,30.18,30.09,13,4,13,0.00
2013-3-12,93.0,72.5,59.5,62.1,49.5,38.4,93,51,17,30.12,30.03,11,2,11,0.00
2013-3-13,87.3,62.1,52.0,61.9,49.8,22.6,97,71,16,30.24,30.12,13,3,13,0.12
2013-3-14,84.9,61.9,49.1,51.3,33.3,18.5,93,43,14,30.30,30.21,10,3,10,0.00
2013-3-15,86.2,62.6,47.3,49.0,36.5,25.3,85,46,16,30.36,30.24,9,3,9,0.12
2013-3-16,90.5,65.9,47.7,60.6,39.7,28.9,97,50,15,30.30,30.21,11,2,11,0.04
2013-3-17,90.0,67.9,52.0,62.0,43.8,32.8,95,52,15,30.27,30.15,14,2,14,0.00
2013-3-18,91.8,70.8,58.3,65.4,52.8,38.2,96,63,18,30.21,30.09,13,3,13,0.04
2013-3-19,89.1,73.4,64.6,68.8,56.2,38.7,96,64,19,30.15,29.94,8,2,8,0.00
2013-3-20,100.2,74.4,60.1,69.0,47.8,32.9,96,51,13,30.12,29.94,12,2,12,0.00
2013-3-21,86.4,67.7,52.0,60.7,39.2,17.7,97,46,13,30.06,29.97,13,3,13,0.00
2013-3-22,91.9,68.0,50.9,63.0,45.2,33.8,91,53,17,30.12,30.00,13,3,13,0.00
2013-3-23,101.3,80.4,67.8,72.7,54.9,37.1,95,54,12,30.12,29.94,11,2,13,0.04
2013-3-24,99.7,80.8,71.2,72.1,55.3,41.2,96,51,16,30.03,29.83,17,3,17,0.00
2013-3-25,88.5,74.4,58.5,71.8,45.2,21.8,94,45,13,30.12,29.88,12,3,12,0.00
2013-3-26,76.1,61.3,46.9,28.5,21.8,12.4,37,22,15,30.30,30.09,13,5,13,0.00
2013-3-27,80.2,57.3,39.6,40.0,23.9,15.3,75,31,15,30.33,30.24,12,4,12,0.00
2013-3-28,88.0,61.6,44.2,42.9,31.8,20.3,83,41,13,30.36,30.27,10,2,10,0.00
2013-3-29,88.0,64.1,47.5,46.0,34.2,26.7,78,39,15,30.39,30.30,10,3,10,0.00
2013-3-30,89.1,66.8,50.9,58.3,38.5,27.8,94,47,13,30.36,30.27,11,2,11,0.00
2013-3-31,93.6,63.5,53.8,61.8,44.6,35.4,94,57,14,30.30,30.15,14,2,14,0.00
2013-4-1,101.5,75.5,62.6,70.3,50.5,34.9,95,52,12,30.18,30.09,11,2,11,0.00
2013-4-2,102.0,75.1,60.6,66.0,49.8,34.5,96,52,12,30.21,30.12,8,2,8,0.00
2013-4-3,97.2,77.1,62.6,68.6,50.9,38.2,94,50,13,30.21,30.12,14,4,14,0.00
2013-4-4,97.0,75.6,66.9,68.3,56.7,40.5,97,61,16,30.18,30.03,23,3,23,1.46
2013-4-5,74.5,67.0,63.3,68.3,61.2,48.8,96,83,42,30.12,29.97,13,2,13,0.67
2013-4-6,88.2,67.1,57.6,62.0,46.5,34.4,97,54,19,30.21,30.06,11,3,11,0.12
2013-4-7,88.0,70.7,60.3,61.5,45.8,35.6,92,45,19,30.27,30.15,11,3,11,0.00
2013-4-8,93.6,71.9,57.9,64.3,45.3,32.5,94,49,14,30.24,30.18,15,2,15,0.00
2013-4-9,92.5,72.8,61.7,66.7,48.1,37.4,92,49,18,30.27,30.18,12,3,12,0.00
2013-4-10,92.8,76.8,64.9,67.4,51.9,41.0,94,48,19,30.24,30.12,17,4,17,1.42
2013-4-11,91.4,79.2,72.0,65.8,52.4,42.5,80,42,19,30.15,30.03,18,6,18,1.42
2013-4-12,99.5,80.2,72.1,70.0,57.6,43.4,81,50,17,30.06,29.97,12,3,12,1.42
2013-4-13,99.0,76.8,71.4,74.3,62.0,43.5,94,66,18,30.09,30.00,10,1,10,0.55
2013-4-14,88.3,78.6,70.5,73.1,57.2,40.6,93,57,20,30.09,30.00,14,4,14,0.00
2013-4-15,90.3,78.0,69.8,70.5,59.5,42.4,95,59,20,30.18,30.03,12,2,12,0.20
2013-4-16,86.5,77.8,70.0,72.5,57.7,45.0,95,56,26,30.24,30.12,12,3,12,0.00
2013-4-17,84.6,77.3,70.5,64.4,49.9,41.6,80,40,24,30.21,30.12,10,3,10,0.00
2013-4-18,86.4,78.8,69.8,64.6,50.7,40.2,74,39,21,30.18,30.09,13,4,13,0.00
2013-4-19,87.8,81.4,76.1,59.1,50.1,41.9,54,35,21,30.15,30.06,17,6,17,0.00
2013-4-20,92.1,79.1,72.5,70.7,57.6,40.2,80,52,18,30.18,30.06,17,2,17,0.00
2013-4-21,85.3,77.0,71.4,67.2,56.9,40.8,83,54,21,30.21,30.09,13,3,13,0.04
2013-4-22,86.4,73.1,66.9,67.4,59.9,42.9,96,69,23,30.18,30.03,10,2,10,1.30
2013-4-23,82.9,74.3,66.6,67.7,49.7,35.7,95,51,21,30.21,30.06,13,3,13,0.00
2013-4-24,82.8,74.9,64.2,57.4,41.6,36.2,72,32,20,30.27,30.15,11,3,11,0.00
2013-4-25,82.6,74.8,64.2,58.0,40.9,35.0,70,32,20,30.30,30.21,10,2,10,0.00
2013-4-26,82.8,73.6,63.0,62.4,45.7,37.5,79,41,21,30.33,30.24,11,2,12,0.00
2013-4-27,81.3,75.2,64.8,57.6,43.1,35.9,64,33,21,30.33,30.21,12,4,12,0.00
2013-4-28,82.0,75.0,70.2,47.9,42.5,0.0,44,32,21,30.24,30.12,13,4,13,0.00
2013-4-29,83.1,76.2,71.2,69.0,49.1,41.4,86,40,26,30.15,30.06,13,4,13,0.12
2013-4-30,87.6,75.3,68.4,69.6,55.7,42.2,83,54,22,30.12,30.03,13,2,13,0.08
2013-5-1,85.5,73.9,68.5,70.7,60.7,45.2,95,69,25,30.12,30.03,11,1,11,0.75
2013-5-2,79.9,71.2,68.0,72.5,63.3,48.7,95,79,34,30.06,29.91,11,2,12,1.57
2013-5-3,86.7,74.6,66.9,66.7,55.0,38.4,90,58,19,29.94,29.83,10,2,10,0.20
2013-5-4,87.3,76.1,67.5,67.0,50.9,37.1,91,49,19,29.94,29.83,12,3,12,0.00
2013-5-5,80.2,71.0,64.0,61.8,50.3,31.1,79,51,20,30.06,29.88,10,4,10,0.00
2013-5-6,85.6,72.9,59.2,51.5,41.0,35.2,68,35,18,30.15,30.03,9,2,9,0.00
2013-5-7,84.7,73.6,62.2,55.1,41.6,32.9,75,35,18,30.18,30.09,10,3,10,0.00
2013-5-8,86.0,74.9,61.7,59.3,42.1,32.3,76,35,16,30.27,30.18,10,1,10,0.04
2013-5-9,88.2,76.5,65.5,58.1,46.5,37.3,62,37,19,30.27,30.18,12,2,12,0.00
2013-5-10,89.8,80.6,70.7,67.2,51.5,40.5,81,40,19,30.24,30.15,15,3,15,0.00
2013-5-11,90.3,78.5,70.7,71.6,57.7,44.1,86,54,21,30.18,30.09,13,2,13,0.08
2013-5-12,92.5,78.7,70.7,73.3,58.0,40.7,92,58,18,30.18,30.06,10,1,11,0.51
2013-5-13,87.4,77.8,70.2,71.1,53.4,37.0,93,51,21,30.21,30.12,10,2,10,0.00
2013-5-14,81.7,75.1,67.1,50.0,39.1,31.1,47,29,19,30.30,30.18,13,3,13,0.00
2013-5-15,81.7,74.1,64.8,48.6,38.8,34.2,53,30,19,30.30,30.21,11,3,11,0.00
2013-5-16,82.9,74.5,63.1,57.5,39.8,33.9,70,31,19,30.24,30.15,11,3,11,0.00
2013-5-19,85.3,84.7,84.2,43.8,42.6,40.7,24,23,22,30.15,30.15,10,5,10,0.00
2013-5-22,88.5,77.0,71.1,70.8,62.0,44.1,92,66,22,0.00,0.00,8,2,8,0.24
2013-5-23,90.7,81.1,71.8,73.7,55.4,39.1,92,50,17,0.00,0.00,10,2,10,0.00
2013-5-24,92.8,81.1,69.4,69.3,54.7,39.6,80,45,17,0.00,0.00,10,2,10,0.16
2013-5-25,85.6,77.8,73.2,68.1,56.2,38.1,78,52,20,30.27,0.00,13,2,13,0.00
2013-5-26,84.4,78.5,68.4,48.8,41.3,38.2,48,28,20,30.30,30.21,13,3,13,0.04
2013-5-27,82.6,82.6,82.6,38.7,38.7,38.7,21,21,21,30.27,30.18,13,4,15,0.04
2013-5-28,82.6,82.6,82.6,38.7,38.7,38.7,21,21,21,30.24,30.15,14,5,14,0.12
2013-5-29,82.6,82.6,82.6,38.7,38.7,38.7,21,21,21,30.21,30.15,19,4,19,1.06
2013-5-30,82.6,82.6,82.6,38.7,38.7,38.7,21,21,21,30.18,30.12,19,6,19,0.08
2013-5-31,82.6,82.6,82.6,38.7,38.7,38.7,21,21,21,30.18,30.12,12,4,12,0.20
2013-6-1,82.6,82.6,82.6,38.7,38.7,38.7,21,21,21,30.15,30.09,9,2,10,1.54
2013-6-2,90.7,82.1,74.7,69.1,41.5,30.8,79,25,17,30.15,30.03,15,1,15,0.55
2013-6-3,90.9,80.4,72.0,72.2,57.8,42.2,86,52,19,30.15,30.03,8,1,8,0.00
2013-6-4,88.0,78.5,72.1,74.1,61.7,43.0,89,61,22,30.18,30.09,8,1,8,0.39
2013-6-5,84.6,80.0,76.3,70.2,61.0,52.0,79,54,34,30.15,30.03,9,3,9,0.04
2013-6-6,91.4,80.0,74.7,75.2,62.4,49.3,93,59,25,30.03,29.91,45,5,45,0.59
2013-6-7,92.3,77.0,72.7,74.7,65.8,49.0,96,73,23,30.15,29.97,9,2,13,4.57
2013-6-8,91.8,79.8,73.4,75.5,63.2,49.5,96,63,26,30.24,30.09,10,2,10,0.00
2013-6-9,90.9,82.5,77.4,65.2,55.4,45.4,64,41,22,30.24,30.15,13,4,13,0.04
2013-6-10,91.8,83.1,77.7,64.9,57.0,48.4,63,43,25,30.21,30.12,13,4,13,0.00
2013-6-11,92.3,82.3,76.8,73.7,60.6,44.0,83,51,20,30.24,30.12,11,2,11,0.55
2013-6-12,91.0,78.9,73.6,73.4,63.4,50.1,90,62,26,30.21,30.15,10,0,10,0.04
2013-6-13,99.9,80.5,72.3,77.0,58.3,42.1,95,55,15,30.18,30.06,10,1,10,0.00
2013-6-14,101.1,81.4,71.4,74.1,59.3,43.5,94,56,15,30.09,30.00,17,2,17,0.24
2013-6-15,103.3,84.1,73.0,75.2,57.8,41.8,95,51,14,30.18,30.06,8,2,8,0.00
2013-6-16,97.9,80.9,72.9,75.4,62.7,42.5,94,63,16,30.21,30.12,11,1,11,0.00
2013-6-17,98.4,85.7,74.1,76.2,54.6,42.6,92,41,16,30.21,30.12,13,3,13,0.00
2013-6-18,99.1,84.3,74.7,75.6,57.7,43.4,94,50,16,30.18,30.09,12,3,13,0.00
2013-6-19,97.2,84.3,75.6,75.7,57.1,43.5,92,45,17,30.18,30.09,11,2,11,0.00
2013-6-20,100.6,82.2,71.4,77.6,57.5,42.8,95,52,16,30.21,30.12,14,2,14,0.24
2013-6-21,99.5,85.3,73.0,73.0,54.0,38.3,86,42,15,30.24,30.15,11,3,11,0.00
2013-6-22,98.2,83.5,72.9,70.8,54.8,41.4,92,45,16,30.24,30.15,10,3,10,0.00
2013-6-23,96.8,83.5,73.4,70.7,53.7,42.1,86,40,17,30.24,30.18,14,4,14,0.31
2013-6-24,95.5,83.4,74.1,73.0,54.6,43.4,89,42,17,30.27,30.21,14,4,14,0.08
2013-6-25,96.6,83.1,73.6,72.7,57.2,43.7,92,47,17,30.24,30.15,13,3,13,0.28
2013-6-26,97.9,84.4,73.9,74.6,56.5,41.2,94,47,16,30.21,30.12,12,3,12,0.12
2013-6-27,99.9,82.3,75.0,75.7,57.9,43.7,90,48,16,30.18,30.09,8,2,8,0.28
2013-6-28,102.0,84.2,73.8,75.8,60.1,38.9,96,57,12,30.12,29.97,10,1,11,1.38
2013-6-29,95.9,82.7,73.8,76.5,71.0,46.1,96,73,19,30.03,29.84,13,1,13,0.11
2013-6-30,91.5,82.4,76.5,78.3,75.4,71.8,95,80,56,29.96,29.87,16,1,17,0.63
2013-7-1,90.8,81.2,76.3,78.3,75.3,70.3,96,83,60,30.05,29.93,15,2,18,0.15
2013-7-2,89.7,81.4,76.3,78.9,76.2,73.4,94,85,66,30.12,29.98,14,2,14,0.04
2013-7-3,88.8,82.5,76.4,77.8,75.3,69.7,94,80,63,30.15,30.05,19,4,24,0.17
2013-7-4,89.9,82.7,75.0,76.6,74.7,68.7,97,78,59,30.18,30.07,18,4,18,0.22
2013-7-5,86.7,81.3,75.1,78.2,75.8,73.3,97,84,71,30.14,30.06,16,3,22,0.18
2013-7-6,89.2,83.0,78.5,77.3,74.9,70.8,90,77,59,30.13,30.04,20,4,25,0.06
2013-7-7,88.3,82.5,75.7,77.4,74.9,73.0,98,79,62,30.11,30.03,15,3,19,0.11
2013-7-8,88.8,82.5,74.4,75.4,73.4,69.7,95,75,56,30.15,30.08,14,2,14,0.00
2013-7-9,87.3,81.1,75.3,75.7,73.0,69.2,95,78,56,30.15,30.06,12,2,14,0.00
2013-7-10,86.2,78.0,73.2,76.0,74.1,68.9,98,88,67,30.10,30.01,9,1,12,0.45
2013-7-11,91.0,81.5,74.8,78.6,74.7,71.1,99,81,55,30.05,29.95,12,2,14,0.00
2013-7-12,90.4,81.0,75.1,78.8,74.7,69.5,97,82,53,29.99,29.90,11,1,17,0.50
2013-7-13,91.3,76.8,72.6,78.1,73.3,70.9,98,89,61,30.04,29.93,12,1,13,3.26
2013-7-14,90.2,78.4,72.2,77.2,73.2,70.3,98,86,56,30.11,29.99,13,2,16,0.43
2013-7-15,89.0,80.4,72.7,77.3,73.3,70.2,99,80,56,30.10,30.02,14,2,18,0.02
2013-7-16,84.3,78.5,74.0,75.9,72.7,70.1,95,83,64,30.16,30.06,20,4,21,0.11
2013-7-17,79.7,74.9,72.1,76.2,73.1,69.4,98,94,82,30.16,30.05,11,1,19,3.33
2013-7-18,84.8,76.4,72.0,78.0,73.8,70.5,99,92,73,30.14,30.06,18,2,21,1.14
2013-7-19,89.0,81.2,73.5,79.6,75.8,73.2,99,85,63,30.14,30.05,18,2,18,0.01
2013-7-20,89.7,82.0,76.5,80.3,76.5,70.9,97,84,60,30.12,30.04,10,1,14,0.02
2013-7-21,92.3,81.8,76.2,79.8,76.5,69.6,97,85,62,30.16,30.06,13,1,13,0.03
2013-7-22,93.0,84.5,76.5,79.8,75.5,70.8,98,76,50,30.15,30.07,10,2,13,0.00
2013-7-23,95.0,84.8,76.2,79.6,75.0,68.0,97,75,42,30.12,29.98,9,1,11,0.02
2013-7-24,94.6,84.8,77.2,78.9,75.3,69.5,99,75,46,30.04,29.92,10,1,13,0.38
2013-7-25,93.6,86.1,79.9,76.7,74.7,72.8,83,70,52,30.03,29.93,3,2,12,0.00
2013-7-26,93.9,83.5,76.0,77.9,76.0,73.3,97,79,54,30.04,29.94,5,2,15,1.30
2013-7-27,89.9,80.6,75.9,79.8,76.7,74.2,98,89,65,30.02,29.95,6,1,13,0.52
2013-7-28,87.0,82.1,76.7,79.2,76.5,74.2,96,84,70,30.08,29.97,9,1,11,0.16
2013-7-29,91.0,82.8,76.0,79.3,76.6,72.7,98,83,59,30.15,30.03,10,2,13,0.00
2013-7-30,90.4,84.6,77.3,80.5,76.9,74.4,93,79,63,30.18,30.08,12,3,14,0.00
2013-7-31,90.7,84.2,77.3,79.4,76.0,72.6,96,77,57,30.12,30.01,14,3,17,0.00
2013-8-1,89.4,83.5,76.8,76.3,74.7,71.1,94,76,60,30.07,29.95,12,3,16,0.00
2013-8-2,92.9,82.4,76.2,77.7,74.8,71.3,96,79,55,30.07,29.93,10,1,10,0.00
2013-8-3,89.1,78.5,71.8,79.3,75.5,69.3,99,91,65,30.15,30.03,25,1,29,1.25
2013-8-4,95.6,82.5,75.9,80.5,76.5,72.7,99,84,51,30.12,29.99,11,1,12,0.20
2013-8-5,92.5,81.6,76.8,80.9,76.5,72.4,99,85,58,30.05,29.96,12,1,13,0.01
2013-8-6,92.6,82.1,74.9,79.7,76.4,72.5,98,84,59,30.00,29.89,15,1,15,0.72
2013-8-7,91.5,83.2,75.2,79.8,76.0,72.5,99,80,58,29.99,29.91,13,2,15,0.00
2013-8-8,91.2,84.8,80.4,78.2,75.7,70.8,89,75,57,30.02,29.93,13,3,15,0.00
2013-8-9,88.8,83.0,78.0,77.0,74.3,69.0,92,76,58,30.07,29.96,16,3,19,0.02
2013-8-10,91.4,84.7,78.1,77.9,75.7,70.8,90,75,55,30.12,30.04,15,3,16,0.00
2013-8-11,91.0,85.1,79.3,78.2,76.5,73.4,90,76,60,30.14,30.07,12,3,17,0.00
2013-8-12,90.5,83.0,75.8,78.7,75.6,71.2,96,79,57,30.12,30.02,11,2,18,0.13
2013-8-13,92.2,84.6,77.3,79.5,75.4,70.2,98,76,50,30.06,29.97,11,2,13,0.02
2013-8-14,92.7,84.3,76.3,78.8,75.2,70.9,98,76,53,30.04,29.93,12,2,13,0.00
2013-8-15,88.8,81.8,76.8,78.0,76.3,73.4,93,83,69,30.07,29.97,10,1,13,0.02
2013-8-16,92.1,85.1,78.2,80.2,77.4,73.5,96,79,56,30.07,29.98,11,2,13,0.00
2013-8-17,91.6,86.1,81.7,79.3,77.6,74.1,90,76,60,30.09,30.01,14,3,17,0.00
2013-8-18,91.0,84.7,81.1,80.0,77.2,74.3,89,79,64,30.08,30.00,16,3,18,0.05
2013-8-19,91.6,84.5,77.7,79.1,76.5,73.2,96,78,57,30.08,29.97,14,3,17,0.00
2013-8-20,91.5,84.8,78.4,77.9,75.9,70.8,93,75,54,30.08,29.99,13,3,17,0.09
2013-8-21,89.3,82.6,77.6,80.1,77.6,75.3,98,85,68,30.08,30.00,15,3,17,0.39
2013-8-22,90.8,83.7,75.3,79.8,77.0,72.6,98,81,65,30.08,29.96,17,3,19,0.04
2013-8-23,91.2,83.5,76.7,79.1,76.5,72.7,97,80,60,30.02,29.94,12,2,14,0.00
2013-8-24,90.5,83.0,76.6,79.8,76.1,71.3,98,81,60,30.13,29.98,10,2,12,0.42
2013-8-25,87.1,79.8,76.1,77.7,75.7,73.4,96,88,69,30.16,30.04,8,1,12,0.14
2013-8-26,89.5,81.4,76.3,78.7,74.9,71.4,95,81,61,30.13,30.02,11,1,15,0.00
2013-8-27,88.2,79.4,74.2,76.6,74.0,67.9,96,84,53,30.06,29.98,7,1,10,0.14
2013-8-28,88.0,79.5,74.3,77.9,74.3,68.9,97,85,62,30.06,29.96,12,1,14,0.16
2013-8-29,91.5,82.4,74.5,77.7,75.0,72.5,97,80,56,30.03,29.93,10,2,11,0.00
2013-8-30,93.8,84.3,75.3,78.3,74.3,67.5,98,74,44,30.02,29.91,9,1,12,0.00
2013-8-31,92.3,80.6,74.6,78.2,74.7,69.9,98,83,55,30.00,29.92,9,1,12,0.21
2013-9-1,90.6,79.2,73.6,79.5,75.9,71.9,99,90,59,30.01,29.94,10,0,13,0.06
2013-9-2,93.6,79.2,73.9,80.6,75.4,71.9,99,90,52,30.06,29.95,11,0,17,0.78
2013-9-3,89.8,80.2,72.6,79.3,75.6,72.3,99,87,64,30.03,29.94,8,1,10,0.00
2013-9-4,87.0,81.5,77.0,80.0,77.6,75.8,98,88,73,30.08,29.95,9,1,10,0.06
2013-9-5,89.3,83.1,78.3,78.8,77.2,72.9,96,83,60,30.08,30.00,11,2,11,0.00
2013-9-6,92.4,84.1,76.8,80.4,76.7,73.0,98,80,55,30.05,29.93,11,2,13,0.00
2013-9-7,82.0,79.6,76.6,78.7,76.2,73.2,93,89,85,29.99,29.93,12,1,12,0.00
2013-9-9,89.1,81.5,73.4,77.4,74.9,72.5,98,82,63,30.01,29.91,6,2,15,0.05
2013-9-10,88.3,81.3,75.6,78.1,75.8,72.1,98,84,61,30.05,29.96,7,2,17,0.08
2013-9-11,84.3,79.2,75.1,78.5,75.4,72.7,96,89,78,30.06,29.97,6,1,15,0.82
2013-9-12,85.2,80.1,75.4,78.8,76.3,74.0,98,89,73,30.02,29.89,3,0,8,0.00
2013-9-13,93.4,83.3,74.0,79.2,75.0,70.9,99,78,49,29.92,29.81,4,1,10,0.00
2013-9-14,91.9,83.8,75.5,79.5,75.1,69.8,99,77,50,29.99,29.83,5,2,12,0.00
2013-9-15,87.1,80.7,76.9,79.6,76.7,73.6,93,88,76,30.06,29.93,10,1,13,0.04
2013-9-16,84.3,80.3,77.3,79.6,77.1,74.5,97,90,82,30.05,29.98,10,2,17,0.19
2013-9-17,83.6,79.4,74.7,78.5,75.8,72.6,97,89,81,30.04,29.92,5,2,12,0.48
2013-9-18,86.8,79.6,74.7,77.9,75.6,72.2,97,88,71,30.03,29.92,4,1,11,0.69
2013-9-19,88.6,80.1,74.4,78.6,75.4,73.6,99,86,66,30.02,29.93,5,2,15,0.08
2013-9-20,86.7,79.9,72.8,74.8,72.4,68.5,98,80,55,30.01,29.90,5,2,16,0.00
2013-9-21,88.1,80.8,72.7,75.4,73.9,71.5,97,81,61,29.93,29.78,5,1,11,0.05
2013-9-22,94.0,85.2,75.3,79.2,76.0,71.6,98,76,50,29.88,29.76,11,1,12,0.01
2013-9-23,89.9,80.8,76.9,79.7,77.5,75.2,98,90,70,29.99,29.87,6,0,20,0.68
2013-9-24,94.7,82.4,74.8,82.2,76.2,72.2,99,83,57,29.98,29.88,11,1,13,0.21
2013-9-25,88.4,80.0,74.0,80.2,75.6,71.6,96,87,67,29.93,29.82,10,1,14,0.25
2013-9-26,89.8,81.0,76.5,82.2,77.8,74.7,98,90,71,29.88,29.81,12,1,14,0.36
2013-9-27,88.8,79.2,74.1,77.8,74.8,67.8,98,88,52,29.93,29.83,4,1,12,0.00
2013-9-28,87.9,81.0,74.2,77.0,73.8,70.4,97,80,61,29.97,29.88,14,2,15,0.52
2013-9-29,87.7,79.8,72.9,75.9,72.3,67.9,99,80,53,29.98,29.88,10,1,13,0.16
2013-9-30,87.7,80.2,71.3,75.6,72.1,70.0,99,78,57,30.01,29.91,10,2,13,0.00
2013-10-1,87.8,82.0,73.5,76.1,73.1,70.4,96,75,60,30.04,29.96,14,3,17,0.00
2013-10-2,85.3,81.7,79.1,75.3,74.0,72.6,84,78,68,30.05,29.97,13,3,15,0.00
2013-10-3,86.7,81.1,75.6,76.7,74.5,72.3,95,81,70,30.06,29.95,11,2,14,0.00
2013-10-4,88.3,79.9,73.0,76.7,72.7,70.4,99,80,60,30.07,29.99,9,2,12,0.00
2013-10-5,89.4,80.0,71.6,74.9,71.5,65.1,98,77,48,30.04,29.93,10,1,15,0.00
2013-10-6,91.8,81.3,73.1,76.8,72.2,66.6,98,76,46,29.98,29.87,8,1,10,0.00
2013-10-7,92.5,79.3,72.9,76.8,73.6,70.7,98,84,52,29.91,29.82,13,1,17,0.25
2013-10-8,91.6,81.7,75.2,79.2,75.1,71.7,99,82,58,29.95,29.86,7,1,10,0.00
2013-10-9,87.0,78.4,72.2,77.1,73.7,70.0,96,86,69,30.00,29.91,12,1,14,0.01
2013-10-10,87.4,78.9,71.4,75.4,72.2,70.0,98,81,62,30.02,29.94,12,2,14,0.00
2013-10-11,87.4,77.6,69.4,73.3,69.4,66.2,99,78,51,30.02,29.95,11,1,12,0.00
2013-10-12,87.3,76.4,66.9,74.3,68.5,65.9,99,79,51,30.04,29.96,9,1,10,0.00
2013-10-13,86.3,77.3,70.6,72.7,68.3,63.5,99,76,49,30.06,29.97,9,1,13,0.00
2013-10-14,86.5,77.3,69.8,72.1,69.3,67.5,96,78,57,30.03,29.91,10,1,11,0.00
2013-10-15,88.1,77.6,70.4,73.8,70.6,67.4,98,81,53,29.97,29.87,10,1,11,0.00
2013-10-16,86.5,76.7,69.8,73.3,70.3,68.2,98,82,57,29.96,29.89,10,1,10,0.00
2013-10-17,87.2,78.0,69.7,74.5,71.4,69.0,99,82,60,29.98,29.90,8,1,9,0.00
2013-10-18,88.3,79.2,70.1,75.4,72.2,69.5,99,81,59,30.00,29.91,10,1,11,0.00
2013-10-19,91.1,81.1,71.1,75.7,73.1,70.2,98,78,57,29.98,29.88,9,2,10,0.00
2013-10-20,91.5,80.6,75.5,79.0,75.6,70.9,98,86,53,29.97,29.88,10,1,11,0.00
2013-10-21,92.1,82.5,74.6,78.5,75.3,73.1,97,80,58,30.01,29.91,10,1,12,0.00
2013-10-22,92.5,82.8,74.4,79.2,75.9,73.5,98,81,57,29.97,29.84,8,1,10,0.00
2013-10-23,88.6,81.0,75.1,77.6,74.2,69.6,97,81,63,29.97,29.83,8,0,9,0.00
2013-10-24,80.3,76.0,72.2,70.3,66.8,63.4,84,74,62,30.10,29.94,6,0,10,0.00
2013-10-25,83.3,75.4,69.0,67.5,65.2,62.5,86,72,52,30.16,30.07,12,0,12,0.00
2013-10-26,83.5,74.1,67.3,67.8,64.9,62.4,90,75,50,30.16,30.06,5,0,8,0.00
2013-10-27,83.3,73.7,65.9,66.9,64.0,61.6,91,73,50,30.10,30.03,4,0,7,0.00
2013-10-28,84.9,74.4,66.0,69.4,65.3,60.0,98,76,45,30.15,30.06,6,0,7,0.00
2013-10-29,85.0,76.3,66.6,71.5,67.7,65.7,98,77,55,30.18,30.09,7,0,11,0.00
2013-10-30,84.0,78.1,67.6,69.5,67.2,64.1,95,70,53,30.20,30.09,3,0,15,0.00
2013-10-31,85.7,78.7,69.9,73.1,70.5,66.6,96,77,60,30.12,30.00,1,0,12,0.00
2013-11-1,88.6,80.0,70.6,75.7,73.0,69.3,97,80,60,30.02,29.89,11,0,11,0.00
2013-11-2,90.0,78.4,69.8,75.5,70.8,64.3,99,80,48,29.95,29.82,5,0,7,0.00
2013-11-3,81.8,73.2,68.4,67.1,63.5,60.4,86,72,55,30.04,29.90,7,0,10,0.00
2013-11-4,80.7,75.9,69.3,69.7,64.9,57.1,86,69,47,30.09,30.01,7,0,15,0.02
2013-11-5,82.6,78.7,73.2,72.3,69.2,65.4,93,73,61,30.10,30.02,7,0,12,0.04
2013-11-6,83.9,78.0,69.3,71.5,69.6,67.3,95,76,62,30.07,30.00,4,0,12,0.00
2013-11-7,86.8,76.2,68.8,73.9,69.8,66.1,97,82,52,30.03,29.92,9,0,9,0.00
2013-11-8,84.9,76.7,71.5,73.2,70.9,67.7,96,83,58,30.04,29.95,3,0,6,0.14
2013-11-9,79.5,76.0,73.2,74.3,72.6,71.3,96,89,81,30.12,30.02,5,0,11,0.47
2013-11-10,83.3,78.2,71.7,73.6,71.4,69.3,93,80,68,30.12,30.05,4,0,8,0.00
2013-11-11,83.4,75.9,70.0,73.1,69.5,66.2,95,81,66,30.12,30.05,2,0,12,0.00
2013-11-12,84.5,76.1,67.7,72.4,68.6,66.2,97,79,59,30.09,29.97,4,0,6,0.00
2013-11-13,76.3,71.9,68.5,68.8,64.6,57.4,89,78,64,30.22,30.00,3,0,9,0.02
2013-11-14,77.0,72.5,68.8,63.2,58.6,55.4,71,62,53,30.25,30.14,0,0,0,0.00
2013-11-15,81.5,76.7,72.7,70.9,66.8,61.3,92,72,63,30.15,30.03,6,0,7,0.02
2013-11-16,80.1,77.4,74.6,73.0,70.1,65.4,91,78,66,30.10,30.02,5,0,7,0.04
2013-11-17,85.2,78.3,70.7,73.4,71.0,68.7,96,79,63,30.08,30.01,1,0,9,0.00
2013-11-18,85.5,76.2,69.3,74.3,71.0,68.7,99,85,65,30.04,29.93,3,0,6,0.00
2013-11-19,85.4,76.5,71.1,74.8,71.9,69.8,97,86,62,29.96,29.86,0,0,8,0.00
2013-11-20,84.7,76.5,69.9,75.1,72.1,69.3,99,87,68,30.07,29.93,6,0,8,0.00
2013-11-21,83.5,76.1,72.0,74.9,72.9,71.2,98,90,73,30.14,30.05,14,1,14,0.18
2013-11-22,81.4,77.2,73.8,73.0,71.4,64.6,96,82,71,30.16,30.07,0,0,7,0.00
2013-11-23,82.8,76.5,72.0,73.5,71.1,69.4,93,84,70,30.08,29.98,12,1,14,0.02
2013-11-24,82.3,73.8,67.5,71.5,68.2,63.9,98,83,61,30.15,29.99,16,2,18,0.01
2013-11-25,76.2,73.4,71.2,70.3,65.6,60.7,93,77,67,30.20,30.05,19,6,22,0.09
2013-11-26,85.1,78.2,72.2,75.6,73.2,70.0,94,85,70,30.06,29.84,16,4,17,0.12
2013-11-27,78.4,71.5,58.7,75.7,65.5,53.1,98,83,54,30.13,29.80,14,2,15,0.82
2013-11-28,73.6,61.6,47.9,60.0,53.7,45.1,91,76,54,30.26,30.13,17,3,17,0.00
2013-11-29,77.5,68.7,59.3,63.8,60.0,57.1,94,75,55,30.28,30.19,17,3,17,0.00
2013-11-30,76.8,67.5,61.2,71.1,63.7,59.8,96,88,72,30.22,30.11,13,2,19,0.31
2013-12-1,76.1,67.9,60.5,71.7,66.4,59.7,99,95,81,30.12,29.96,8,1,11,0.33
2013-12-2,74.3,67.2,60.3,67.1,64.3,59.5,99,91,65,29.96,29.84,8,1,10,0.01
2013-12-3,80.8,68.1,59.4,65.9,62.4,58.8,99,84,51,30.01,29.91,6,0,8,0.00
2013-12-4,82.8,74.3,63.8,71.0,66.6,63.1,99,78,60,30.10,30.00,7,1,10,0.00
2013-12-5,82.8,73.3,63.2,71.8,68.3,62.6,99,85,67,30.18,30.08,13,2,14,0.00
2013-12-6,83.5,76.2,66.8,71.6,69.3,65.4,96,80,62,30.19,30.10,13,2,14,0.00
2013-12-7,84.3,73.3,64.5,73.8,68.3,64.0,99,86,61,30.23,30.14,9,1,9,0.04
2013-12-8,82.8,76.3,67.9,72.4,69.8,66.8,98,81,60,30.22,30.13,13,3,15,0.14
2013-12-9,83.3,77.2,68.3,71.7,68.4,63.2,97,76,52,30.21,30.11,14,3,16,0.00
2013-12-10,85.4,76.0,66.7,73.1,70.7,66.1,99,85,63,30.17,30.08,8,1,9,0.00
2013-12-11,84.2,74.8,69.4,75.4,71.0,68.7,99,89,66,30.21,30.13,10,1,13,0.00
2013-12-12,79.6,70.7,63.2,71.5,66.6,59.6,99,87,68,30.24,30.14,11,2,16,0.01
2013-12-13,77.7,71.6,62.0,69.5,64.1,58.7,94,78,63,30.20,30.10,14,4,20,0.00
2013-12-14,82.5,77.1,72.3,72.9,70.9,68.7,95,82,68,30.12,30.00,16,3,16,0.00
2013-12-15,83.8,76.1,71.0,77.4,71.6,59.0,97,87,53,30.07,29.94,5,0,10,0.20
2013-12-16,73.9,68.0,61.4,67.8,61.7,58.8,92,81,66,30.17,30.05,1,0,1,0.00
2013-12-17,78.1,66.2,58.3,65.9,59.9,56.8,96,81,57,30.19,30.10,3,0,8,0.00
2013-12-18,76.2,66.0,59.4,60.6,58.4,55.2,98,78,53,30.25,30.15,1,0,1,0.00
2013-12-19,78.0,67.9,56.6,63.3,59.7,55.2,97,76,55,30.25,30.16,1,0,8,0.00
2013-12-20,81.4,73.8,61.7,71.1,67.1,60.3,98,80,63,30.20,30.11,5,0,14,0.00
2013-12-21,82.3,78.1,74.8,73.7,71.8,69.8,88,81,71,30.16,30.07,11,0,13,0.00
2013-12-22,83.8,79.1,76.6,73.9,72.3,70.3,88,80,64,30.17,30.08,20,4,20,0.00
2013-12-23,83.5,77.8,70.1,73.9,72.1,68.8,96,83,69,30.18,30.11,13,3,14,0.00
2013-12-24,83.1,71.2,66.2,73.9,67.1,60.9,99,88,67,30.19,30.09,14,2,16,0.00
2013-12-25,77.2,72.7,67.5,68.3,66.4,62.8,93,81,70,30.18,30.10,15,4,17,0.04
2013-12-26,78.6,74.3,70.6,71.6,69.7,67.7,93,86,76,30.17,30.07,9,2,13,0.02
2013-12-27,81.2,74.2,67.4,72.8,69.8,66.8,98,87,72,30.20,30.10,12,2,13,0.04
2013-12-28,79.9,76.7,74.2,73.0,71.2,68.7,89,83,76,30.18,30.03,15,4,17,0.01
2013-12-29,82.3,77.5,74.1,75.0,73.5,72.2,97,88,78,30.05,29.94,12,2,12,0.00
2013-12-30,78.7,73.0,68.2,73.4,69.9,65.0,99,90,76,30.16,29.99,10,1,10,0.00
2013-12-31,79.6,72.6,66.7,68.2,64.7,62.5,89,77,61,30.23,30.11,17,4,18,0.00
2014-1-1,81.9,75.0,71.5,74.1,70.7,65.6,97,87,73,30.20,30.05,13,3,14,0.62
2014-1-2,85.8,75.5,66.3,72.7,69.4,65.7,99,83,58,30.05,29.88,12,1,14,0.01